Portage Des Sioux, MO

2:17 PM CST on February 08, 2016 (GMT -0600)
Saint Charles County Smartt

Weather History for KSET - April, 2014

Change the Weather History Date:

Wednesday, April 16, 2014

  Actual Average (KSTL) Record (KSTL)
Temperature  
Mean Temperature 46 °F 58 °F  
Max Temperature 57 °F 68 °F 90 °F (2002)
Min Temperature 35 °F 47 °F 25 °F (1875)
Degree Days  
Heating Degree Days 19 9  
Month to date heating degree days 178  
Since 1 July heating degree days 4364  
Cooling Degree Days 0 1  
Month to date cooling degree days 16  
Year to date cooling degree days 23  
Moisture  
Dew Point 28 °F    
Average Humidity 51    
Maximum Humidity 73    
Minimum Humidity 30    
Precipitation  
Precipitation 0.00 in 0.12 in 1.36 in (1922)
Month to date precipitation 1.91  
Year to date precipitation 9.87  
Snow  
Snow 0.00 in 0.00 in T in (2001)
Month to date snowfall 0.3  
Since 1 July snowfall 17.6  
Snow Depth -    
Sea Level Pressure  
Sea Level Pressure 30.16 in    
Wind  
Wind Speed 14 mph (SSE)    
Max Wind Speed 26 mph    
Max Gust Speed 33 mph    
Visibility 10 miles    
Events      
T = Trace of Precipitation, MM = Missing Value Source: NWS Daily Summary

Daily Weather History Graph

Daily Weather History Graph

Search for Another Location

Airport or City:

Trip Planner

Search our weather history database for the weather conditions in past years. The results will help you decide how hot, cold, wet, or windy it might be!

Date:

Astronomy

Apr. 16, 2014 Rise Set
Actual Time 6:23 AM CDT 7:39 PM CDT
Civil Twilight 5:56 AM CDT 8:07 PM CDT
Nautical Twilight 5:23 AM CDT 8:40 PM CDT
Astronomical Twilight 4:48 AM CDT 9:15 PM CDT
Moon 9:22 PM CDT (4/16) 7:11 AM CDT (4/16)
Length of Visible Light 14h 11m
Length of Day
13h 16m
Full, 98% of the Moon is Illuminated
Apr 16
Full
Apr 22
Last Quarter
Apr 29
New
May 6
First Quarter
May 14
Full

Hourly Weather History & Observations

Time (CDT) Temp. Windchill Dew Point Humidity Pressure Visibility Wind Dir Wind Speed Gust Speed Precip Events Conditions
12:54 AM 36.0 °F 29.6 °F 28.0 °F 73% 30.21 in 10.0 mi SSE 8.1 mph - N/A   Clear
1:54 AM 37.0 °F 29.3 °F 27.0 °F 67% 30.22 in 10.0 mi SSE 11.5 mph - N/A   Clear
2:54 AM 37.0 °F 30.4 °F 26.1 °F 65% 30.21 in 10.0 mi SSE 9.2 mph - N/A   Clear
3:54 AM 35.1 °F 28.6 °F 26.1 °F 70% 30.22 in 10.0 mi SSE 8.1 mph - N/A   Clear
4:54 AM 35.1 °F 27.9 °F 26.1 °F 70% 30.22 in 10.0 mi SSE 9.2 mph - N/A   Clear
5:54 AM 36.0 °F 28.0 °F 25.0 °F 64% 30.22 in 10.0 mi SSE 11.5 mph - N/A   Clear
6:54 AM 37.0 °F 28.9 °F 25.0 °F 62% 30.22 in 10.0 mi SSE 12.7 mph - N/A   Clear
7:54 AM 39.9 °F 32.1 °F 26.1 °F 58% 30.24 in 10.0 mi SSE 13.8 mph - N/A   Clear
8:54 AM 43.0 °F 34.8 °F 27.0 °F 53% 30.24 in 10.0 mi SSE 18.4 mph - 0.00 in   Clear
9:54 AM 46.0 °F 38.3 °F 28.0 °F 50% 30.25 in 10.0 mi SSE 20.7 mph 27.6 mph 0.00 in   Clear
10:54 AM 48.9 °F - 28.9 °F 46% 30.24 in 10.0 mi SSE 21.9 mph - N/A   Clear
11:54 AM 51.1 °F - 28.9 °F 43% 30.22 in 10.0 mi South 24.2 mph 32.2 mph N/A   Clear
12:54 PM 53.1 °F - 30.0 °F 41% 30.19 in 10.0 mi South 20.7 mph 31.1 mph N/A   Clear
1:54 PM 55.0 °F - 30.0 °F 38% 30.16 in 10.0 mi SSE 26.5 mph 33.4 mph N/A   Clear
2:54 PM 55.9 °F - 30.0 °F 37% 30.12 in 10.0 mi SSE 21.9 mph 31.1 mph N/A   Clear
3:54 PM 57.0 °F - 28.0 °F 33% 30.09 in 10.0 mi South 21.9 mph 31.1 mph N/A   Clear
4:54 PM 57.9 °F - 28.0 °F 32% 30.06 in 10.0 mi South 19.6 mph - N/A   Clear
5:54 PM 57.0 °F - 26.1 °F 30% 30.04 in 10.0 mi SSE 24.2 mph 29.9 mph N/A   Clear
6:54 PM 54.0 °F - 26.1 °F 34% 30.04 in 10.0 mi SSE 17.3 mph - N/A   Clear
7:54 PM 51.1 °F - 26.1 °F 38% 30.06 in 10.0 mi SSE 13.8 mph - N/A   Clear
8:54 PM 50.0 °F - 28.0 °F 43% 30.08 in 10.0 mi SSE 13.8 mph - N/A   Clear
9:54 PM 46.9 °F - 30.0 °F 52% 30.12 in 10.0 mi SSE 10.4 mph - N/A   Clear
10:54 PM 46.0 °F 41.0 °F 30.9 °F 56% 30.12 in 10.0 mi SSE 10.4 mph - N/A   Clear
11:54 PM 45.0 °F 39.3 °F 30.9 °F 58% 30.13 in 10.0 mi SSE 11.5 mph - N/A   Clear